Powrót do katalogu

CZ-3B DEB

AktywnyGTO
NORAD 40189·DEBRIS·🇨🇳 China

Wystrzelony Dec 19, 2011 z Xichang Satellite Launch Center

Loading…

TLE

NieaktualneSource: Space-Track

Epoka: Sep 8, 2026, 10:26 UTC

1 40189U 11077N   26251.43515702 -.00000326  00000-0  76536-3 0  9993
2 40189  27.0434 355.8014 7369169  28.0111 356.7971  1.90409374 95913

Śledź CZ-3B DEB w czasie rzeczywistym z AllMySat

Download on the App Store